STARLINK-30589

Satellite information

Favourite Embed

Satellite Type and Status

PAYLOADIN ORBIT

Key statistics

Satellite STARLINK-30589 at a glance.

Uptime

747

Days in orbit

Revolutions

≈ 15.3

Per day

Orbit

LEO

Low Earth Orbit

Inclination

53.2

Latest

Satellite identification and parameters

Extended collection of information and parameters for STARLINK-30589.

Object identification

Identified? True

Debris? False

Object name: STARLINK-30589

International designator: 2023-161G

Object number (NORAD): 58103

Object ID (CCSDS): 58103

Country: UNITED STATES OF AMERICA (US)

Current information (Y/N): Y

RCS size: LARGE

Orbital parameters

Period: 94.105 minutes

Inclination: 53.1595 deg

SMA: 6853.337 km

Apoapsis: 476.059 km

Periapsis: 474.345 km

RAAN: 22.1677 deg

Eccentricy: 0.00012504

Argument of periapsis: 66.3924 deg

Mean anomaly: 293.7208 deg

Mean motion: 15.3020493 rev/day

Mean motion (dot): 0.00016372 rev/day2

B* drag term: 0.00056358942 1/REarth

Two-line elements (TLE)

Creation date: Nov. 6, 2025, 3:23 a.m.

Reference frame: TEME

Reference center: EARTH

Epoch: Nov. 5, 2025, 1:35 p.m. UTC

TLE line 0: 0 STARLINK-30589

TLE line 1: 1 58103U 23161G 25309.56604355 .00016372 00000-0 56359-3 0 9993

TLE line 2: 2 58103 53.1595 22.1677 0001250 66.3924 293.7208 15.30204930115410

Live tracking on map

Real-time ground track for satellite STARLINK-30589.

In-orbit conjunctions

There are no conjunctions computed for STARLINK-30589, at the moment. Check back to stay up to date, as we update our databases every day.

Go to all conjunctions

Associated space launch

A batch of 21 satellites for the Starlink mega-constellation - SpaceX's project for space-based Internet communication system.

STARLINK-30589 was lifted into orbit during the mission ‘Falcon 9 Block 5 | Starlink Group 7-5’, on board a Falcon 9 space rocket.

The launch took place on Oct. 21, 2023, 8:23 a.m. from Space Launch Complex 4E.

For more information about the launch, click the button.

Launch to space Falcon 9 Block 5 | Starlink Group 7-5
Falcon 9 Block 5 | Starlink Group 7-5

Agency: SpaceX

Status: Launch Successful

Launch date: Oct. 21, 2023, 8:23 a.m. UTC

Rocket: Falcon 9

Launch pad: Space Launch Complex 4E

Location: Vandenberg SFB, CA, USA

...

Latest news about this satellite

News about space launch
Launch Roundup: SpaceX to launch three Starlink missions; India to test crew abort system

Another busy period in spaceflight is underway with three Falcon 9 rockets with Starlink payloads and the first test flight of India’s Gaganyaan crew-capable spacecraft. Starlink 6-23 and 6-24 are set to fly from Space Launch Complex (SLC) 40 at Cape Cana...


Newsletter sign-up

Weekly statistics, charts and insights to help you stay on top of the space industry.